{"data":{"norad_id":57475,"intl_designator":"2023-107U","name":"STARLINK-30155","alt_names":[],"object_type":"PAYLOAD","status":"ACTIVE","operator":null,"country":"US","launch_date":"2023-07-28","launch_site_code":"AFETR","launch_vehicle":null,"mission":null,"orbit_class":"UNKNOWN","rcs_meters":null,"size_class":null,"mass_kg":null,"dimensions":null,"purposes":["comms"],"wikipedia_slug":null,"has_3d_model":false,"image_url":null,"decayed_at":null,"tle_current":{"epoch":"2026-05-24T18:00:44.310240Z","epoch_age_seconds":100575,"freshness":"FRESH","line1":"1 57475U 23107U   26144.75051285  .00000333  00000+0  21618-4 0  9991","line2":"2 57475  43.0015 266.2076 0001744 262.5940  97.4713 15.27577659156788","mean_motion":15.27577659,"eccentricity":0.0001744,"inclination_deg":43.0015,"raan_deg":266.2076,"arg_perigee_deg":262.594,"mean_anomaly_deg":97.4713,"bstar":2.1618e-5,"rev_number":15678,"period_min":94.266893176656,"perigee_km":481.85951376712,"apogee_km":484.25269792243,"semimajor_km":6861.1931058448,"source":"CELESTRAK","updated_at":"2026-05-25T13:38:18.326020Z"}}}